Regional Weather Roundup
Issued by NWS

Home | Current Version | Previous Version | Text Only | Print | Product List | Glossary On
Versions: 1 2 3 4 5 6 7 8 9 10 11 12 13 14 15 16 17 18 19 20 21 22 23 24 25 26 27 28 29 30 31 32 33 34 35 36 37 38 39 40 41 42 43 44 45 46 47 48 49 50
000
ASUS43 KLMK 241602
RWRKY
KENTUCKY REGIONAL WEATHER ROUNDUP
NATIONAL WEATHER SERVICE LOUISVILLE KY
1200 PM EDT FRI OCT 24 2014

NOTE "FAIR" INDICATES FEW OR NO CLOUDS BELOW 12,000 FEET
WITH NO SIGNIFICANT WEATHER AND/OR OBSTRUCTIONS TO VISIBILITY.

KYZ001>023-026-027-061>063-070>075-241700-
WESTERN AND SOUTH CENTRAL KENTUCKY

CITY           SKY/WX    TMP DP  RH WIND       PRES   REMARKS
PADUCAH        MOSUNNY   61  50  67 W6        30.13F
HENDERSON      PTSUNNY  N/A N/A N/A CALM      30.13F
OWENSBORO      PTSUNNY   56  47  71 S7        30.15S
HOPKINSVILLE   SUNNY     62  45  53 VRB2      30.14S
BOWLING GREEN  MOSUNNY   61  44  53 CALM      30.15R
GLASGOW        NOT AVBL
$$

KYZ024-025-028>034-038-045-046-053-241700-
NORTH CENTRAL KENTUCKY

CITY           SKY/WX    TMP DP  RH WIND       PRES   REMARKS
LOUISVILLE/SDF PTSUNNY   57  46  66 SW7       30.14S
LOUISVILLE/LOU MOSUNNY   56  45  66 CALM      30.14S
FORT KNOX      CLOUDY    58  44  60 SW2       30.12S
$$

KYZ035>037-039>044-047>052-055>060-089>105-241700-
NORTHEAST KENTUCKY

CITY           SKY/WX    TMP DP  RH WIND       PRES   REMARKS
LEXINGTON      PTSUNNY   58  45  62 CALM      30.14S
COVINGTON      SUNNY     59  42  53 S3        30.12F
FRANKFORT      MOSUNNY   54  46  74 CALM      30.13F
$$

KYZ054-064>069-076>088-106>120-241700-
SOUTHEAST KENTUCKY

CITY           SKY/WX    TMP DP  RH WIND       PRES   REMARKS
JACKSON        PTSUNNY   55  45  68 CALM      30.13F
LONDON         MOSUNNY   56  44  64 S3        30.13S
SOMERSET       PTSUNNY   55  43  62 CALM      30.15R
MIDDLESBORO    CLOUDY    51  44  78 CALM      30.13F
MONTICELLO     SUNNY     61  46  57 CALM      30.14F
$$




USA.gov is the U.S. government's official web portal to all federal, state and local government web resources and services.